Regional Weather Roundup
Issued by NWS

Home | Current Version | Previous Version | Graphics & Text | Print | Product List | Glossary On
Versions: 1 2 3 4 5 6 7 8 9 10 11 12 13 14 15 16 17 18 19 20 21 22 23 24 25 26 27 28 29 30 31 32 33 34 35 36 37 38 39 40 41 42 43 44 45 46 47 48 49 50
000
ASUS45 KBOI 260110
RWRID

IDAHO REGIONAL WEATHER ROUNDUP
NATIONAL WEATHER SERVICE BOISE ID
700 PM MDT MON MAY 25 2015

NOTE: "FAIR" INDICATES FEW OR NO CLOUDS BELOW 12000 FEET
WITH NO SIGNIFICANT WEATHER AND/OR OBSTRUCTIONS TO VISIBILITY

IDZ012-014-260200-
SOUTHWEST IDAHO


CITY           SKY/WX    TMP DP  RH WIND       PRES   REMARKS
BOISE          CLOUDY    69  47  45 SE15G23   29.84F
CALDWELL       CLOUDY    68  45  42 S13       29.83S
$$

IDZ016-017-260200-
SOUTHCENTRAL IDAHO


CITY           SKY/WX    TMP DP  RH WIND       PRES   REMARKS
BURLEY         CLOUDY    64  48  56 SW9       29.89S
JEROME         PTSUNNY   67  46  47 S14       29.90S
TWIN FALLS     PTSUNNY   66  46  48 S15       29.88S
$$

IDZ019>023-260200-
SOUTHEAST IDAHO


CITY           SKY/WX    TMP DP  RH WIND       PRES   REMARKS
IDAHO FALLS    LGT RAIN  59  45  59 N8        29.91F
POCATELLO      PTSUNNY   68  43  40 SW7       29.90R THUNDER
REXBURG        PTSUNNY   60  44  55 SW9       29.91R
$$

IDZ006-010-011-018-031-032-260200-
CENTRAL IDAHO MOUNTAINS


CITY           SKY/WX    TMP DP  RH WIND       PRES   REMARKS
MCCALL         PTSUNNY   59  42  53 NE9       29.90F
HAILEY         CLOUDY    61  45  55 SW14G20   29.93R
STANLEY          N/A     57  37  47 N7        29.96R
SALMON         CLOUDY    64  39  39 W9        29.84R
CHALLIS        CLOUDY    63  41  44 N7        29.84F
$$

IDZ002-004-006-007-026-260200-
NORTHERN IDAHO


CITY           SKY/WX    TMP DP  RH WIND       PRES   REMARKS
LEWISTON       MOSUNNY   71  47  42 N5        29.84S
LOWELL           N/A     60  57  89 N3        29.89S
COEUR D`ALENE  PTSUNNY   63  50  63 W7        29.87R
MULLAN PASS    CLOUDY    47  44  90 CALM      29.97F
$$



USA.gov is the U.S. government's official web portal to all federal, state and local government web resources and services.